PROFILE

 METAR AND TAF INFORMATION
ADDS - METARS form results

(0604 UTC 22 September 2019)
http://aviationweather.gov/metar/data/
 
GMMN 220600Z 00000KT 9999 SCT008 18/17 Q1017 NOSIG
GMMN 220530Z 00000KT 8000 BKN008 17/17 Q1017 NOSIG
TAF GMMN 220500Z 2206/2312 00000KT 9999 BKN008 BECMG 2209/2213 33012KT CAVOK PROB30 2303/2307 16004KT 2000 BR BKN004 

 AIRPORT MAP

 RUNWAY INFORMATION
Runway 17L Runway length 12205 ft Runway width 148 ft
Runway elevation 633 ft Runway displaced threshold 0 ft Runway heading 164
Runway 35R Runway length 12205 ft Runway width 148 ft
Runway elevation 656 ft Runway displaced threshold 0 ft Runway heading 344
Runway 17R Runway length 12205 ft Runway width 148 ft
Runway elevation 636 ft Runway displaced threshold 0 ft Runway heading 164
Runway 35L Runway length 12205 ft Runway width 148 ft
Runway elevation 656 ft Runway displaced threshold 0 ft Runway heading 344

 AIRPORT FREQUENCIES
Type APP Name APP Frequency 121.3 MHZ
Type ATIS Name ATIS Frequency 126.4 MHZ
Type TWR Name TWR Frequency 118.5 MHZ

 AIRPORT NEAR NAVIGATION AIDS
Type VOR-DME Name Casablanca Frequency 114000 KHZ